KE7YUP Weather Reports


time (UTC)temp
F
wind
direction
speed
knots
gust
knots
rain 1hr
in
rain 24hr
in
rain mn
in
humidity
%
barometer
mb
20260904043216 74 203 4.3 7.0 0.00 0.00 0.00 18 1014.5
20260904042215 75 209 4.3 7.8 0.00 0.00 0.00 18 1014.4
20260904041216 75 218 4.3 7.0 0.00 0.00 0.00 17 1014.6
20260904040215 76 190 4.3 9.6 0.00 0.00 0.00 17 1014.3
20260904035215 75 201 4.3 8.7 0.00 0.00 0.00 17 1014.3
20260904034215 76 188 4.3 7.0 0.00 0.00 0.00 17 1014.4
20260904033215 76 192 5.2 9.6 0.00 0.00 0.00 17 1014.4
20260904032215 76 176 4.3 7.8 0.00 0.00 0.00 17 1014.0
20260904031235 76 191 4.3 7.0 0.00 0.00 0.00 17 1013.6
20260904030215 75 191 5.2 9.6 0.00 0.00 0.00 18 1013.4
20260904025215 75 192 3.5 6.1 0.00 0.00 0.00 18 1013.5
20260904024215 75 191 4.3 8.7 0.00 0.00 0.00 18 1012.7
20260904023215 76 180 1.7 3.5 0.00 0.00 0.00 18 1013.0
20260904022215 77 193 1.7 3.5 0.00 0.00 0.00 17 1012.9
20260904021215 78 196 3.5 7.0 0.00 0.00 0.00 17 1012.8
20260904020215 78 198 5.2 9.6 0.00 0.00 0.00 16 1012.9
20260904015215 78 188 5.2 9.6 0.00 0.00 0.00 17 1012.9
20260904014255 78 193 7.8 10.4 0.00 0.00 0.00 16 1012.8
20260904013215 79 189 6.1 10.4 0.00 0.00 0.00 16 1013.0
20260904012215 79 198 8.7 12.2 0.00 0.00 0.00 16 1012.9
20260904011215 80 194 9.6 17.4 0.00 0.00 0.00 16 1013.1
20260904010215 80 207 6.1 11.3 0.00 0.00 0.00 16 1013.1
20260904005215 80 210 6.1 14.8 0.00 0.00 0.00 16 1013.2
20260904004215 80 208 7.0 11.3 0.00 0.00 0.00 16 1013.6
20260904003215 81 192 8.7 16.5 0.00 0.00 0.00 15 1013.5
20260904002215 81 197 10.4 13.9 0.00 0.00 0.00 16 1013.6
20260904001215 82 188 4.3 9.6 0.00 0.00 0.00 16 1013.7
20260904000215 82 201 12.2 20.0 0.00 0.00 0.00 16 1013.6
20260903235215 83 190 14.8 22.6 0.00 0.00 0.00 15 1013.7
20260903234217 83 181 11.3 17.4 0.00 0.00 0.00 15 1013.8
20260903233217 82 165 8.7 20.0 0.00 0.00 0.00 15 1013.7
20260903232217 82 170 11.3 20.9 0.00 0.00 0.00 14 1013.6
20260903231217 83 208 9.6 20.9 0.00 0.00 0.00 15 1014.4
20260903230217 83 197 13.0 24.3 0.00 0.00 0.00 14 1014.6
20260903225217 82 195 10.4 15.6 0.00 0.00 0.00 14 1014.8
20260903224217 82 188 13.9 22.6 0.00 0.00 0.00 14 1014.9
20260903223216 82 189 13.0 20.9 0.00 0.00 0.00 14 1015.1
20260903222216 82 233 13.0 19.1 0.00 0.00 0.00 13 1015.2
20260903221216 83 208 7.8 20.0 0.00 0.00 0.00 12 1015.3
20260903220217 82 180 9.6 17.4 0.00 0.00 0.00 13 1015.3
20260903215217 82 192 13.0 20.0 0.00 0.00 0.00 12 1015.4
20260903214217 81 182 7.8 17.4 0.00 0.00 0.00 13 1015.2
20260903213236 81 179 12.2 19.1 0.00 0.00 0.00 13 1015.5
20260903212216 81 189 14.8 21.7 0.00 0.00 0.00 13 1015.7
20260903211236 81 187 10.4 18.2 0.00 0.00 0.00 13 1015.3
20260903210217 81 188 12.2 20.9 0.00 0.00 0.00 14 1015.7
20260903205216 81 189 12.2 22.6 0.00 0.00 0.00 14 1015.8
20260903204216 80 209 7.0 14.8 0.00 0.00 0.00 14 1015.9
20260903203217 80 179 13.0 19.1 0.00 0.00 0.00 14 1016.0
20260903202216 80 223 13.9 22.6 0.00 0.00 0.00 15 1016.1
20260903201236 80 214 7.8 13.9 0.00 0.00 0.00 15 1016.5
20260903200217 80 173 10.4 20.9 0.00 0.00 0.00 14 1016.7
20260903195217 79 220 5.2 10.4 0.00 0.00 0.00 15 1016.8
20260903194216 79 214 11.3 20.0 0.00 0.00 0.00 14 1016.9
20260903193216 78 189 8.7 13.0 0.00 0.00 0.00 14 1017.1
20260903192216 78 180 7.0 10.4 0.00 0.00 0.00 15 1017.2
20260903191256 78 170 7.8 12.2 0.00 0.00 0.00 15 1017.4
20260903190216 78 195 7.8 15.6 0.00 0.00 0.00 15 1017.5
20260903185216 77 205 4.3 11.3 0.00 0.00 0.00 14 1017.5
20260903184236 77 192 5.2 10.4 0.00 0.00 0.00 16 1017.7
20260903183216 77 186 6.1 11.3 0.00 0.00 0.00 15 1017.8
20260903182216 77 183 7.8 14.8 0.00 0.00 0.00 16 1017.9
20260903181216 76 170 9.6 13.0 0.00 0.00 0.00 16 1018.2
20260903180216 76 182 8.7 13.0 0.00 0.00 0.00 17 1018.5
20260903175216 75 160 6.1 10.4 0.00 0.00 0.00 17 1018.3
20260903174216 76 177 3.5 9.6 0.00 0.00 0.00 16 1018.6
20260903173216 76 191 7.0 10.4 0.00 0.00 0.00 17 1018.6
20260903172216 75 163 5.2 8.7 0.00 0.00 0.00 17 1018.7
20260903171216 75 165 6.1 10.4 0.00 0.00 0.00 17 1018.7
20260903170216 74 181 7.8 20.0 0.00 0.00 0.00 17 1018.8
20260903165216 74 186 8.7 16.5 0.00 0.00 0.00 18 1018.8
20260903164216 74 199 8.7 13.0 0.00 0.00 0.00 18 1018.6
20260903163236 73 193 7.8 13.0 0.00 0.00 0.00 18 1018.6
20260903162237 73 177 7.0 12.2 0.00 0.00 0.00 18 1018.7
20260903161216 72 168 5.2 10.4 0.00 0.00 0.00 20 1018.4
20260903160236 71 155 2.6 5.2 0.00 0.00 0.00 35 1018.9
20260903155216 71 93 5.2 7.8 0.00 0.00 0.00 35 1018.8
20260903154215 71 91 1.7 5.2 0.00 0.00 0.00 30 1018.9
20260903153216 70 97 0.9 1.7 0.00 0.00 0.00 28 1018.8
20260903152216 70 127 1.7 3.5 0.00 0.00 0.00 32 1019.1
20260903151216 70 125 0.9 1.7 0.00 0.00 0.00 24 1019.0
20260903150236 68 75 0.9 1.7 0.00 0.00 0.00 20 1018.6
20260903145216 67 12 1.7 4.3 0.00 0.00 0.00 20 1018.5
20260903144256 67 5 1.7 2.6 0.00 0.00 0.00 22 1018.6
20260903143236 66 5 2.6 3.5 0.00 0.00 0.00 24 1018.5
20260903142215 65 263 1.7 3.5 0.00 0.00 0.00 23 1018.1
20260903141216 64 248 3.5 7.0 0.00 0.00 0.00 23 1018.2
20260903140216 63 248 3.5 7.8 0.00 0.00 0.00 23 1017.8
20260903135236 63 261 3.5 5.2 0.00 0.00 0.00 24 1017.9
20260903134216 62 259 4.3 6.1 0.00 0.00 0.00 24 1017.7
20260903133215 62 249 6.1 8.7 0.00 0.00 0.00 24 1017.6
20260903132215 62 257 7.8 11.3 0.00 0.00 0.00 24 1017.5
20260903131215 62 258 4.3 7.8 0.00 0.00 0.00 24 1017.3
20260903130215 61 249 7.0 8.7 0.00 0.00 0.00 24 1017.3
20260903125216 61 244 5.2 7.0 0.00 0.00 0.00 24 1017.1
20260903124215 61 233 4.3 8.7 0.00 0.00 0.00 24 1017.1
20260903123215 61 245 5.2 8.7 0.00 0.00 0.00 25 1017.2
20260903122215 61 251 4.3 7.0 0.00 0.00 0.00 24 1017.0
20260903121215 62 237 4.3 7.8 0.00 0.00 0.00 24 1017.3
20260903120215 62 234 5.2 8.7 0.00 0.00 0.00 24 1017.3
20260903115235 61 267 3.5 6.1 0.00 0.00 0.00 26 1017.1
20260903114218 60 267 1.7 2.6 0.00 0.00 0.00 26 1017.1
20260903113235 60 267 1.7 2.6 0.00 0.00 0.00 26 1017.1
20260903112215 60 267 2.6 3.5 0.00 0.00 0.00 26 1017.0
20260903111215 61 267 2.6 3.5 0.00 0.00 0.00 24 1017.0
20260903110215 63 267 0.0 0.9 0.00 0.00 0.00 23 1017.3
20260903105235 63 267 1.7 2.6 0.00 0.00 0.00 22 1017.3
20260903104215 64 267 3.5 5.2 0.00 0.00 0.00 22 1017.4
20260903103215 64 267 3.5 5.2 0.00 0.00 0.00 22 1017.4
20260903102215 63 267 2.6 3.5 0.00 0.00 0.00 22 1017.4
20260903101235 64 260 2.6 4.3 0.00 0.00 0.00 22 1017.4
20260903100215 64 244 3.5 4.3 0.00 0.00 0.00 22 1017.3
20260903095215 64 252 3.5 5.2 0.00 0.00 0.00 22 1017.3
20260903094235 64 254 5.2 7.8 0.00 0.00 0.00 22 1017.2
20260903093215 64 260 3.5 5.2 0.00 0.00 0.00 23 1017.2
20260903092215 64 250 1.7 2.6 0.00 0.00 0.00 23 1017.1
20260903091215 63 250 1.7 1.7 0.00 0.00 0.00 23 1017.0
20260903090215 62 350 1.7 2.6 0.00 0.00 0.00 24 1016.7
20260903085215 62 350 0.9 1.7 0.00 0.00 0.00 24 1016.6
20260903084217 62 350 0.9 1.7 0.00 0.00 0.00 24 1016.6
20260903083215 62 350 0.9 2.6 0.00 0.00 0.00 24 1016.4
20260903082257 63 328 1.7 4.3 0.00 0.00 0.00 23 1016.7
20260903081216 63 252 1.7 2.6 0.00 0.00 0.00 23 1016.4
20260903080237 64 252 0.9 2.6 0.00 0.00 0.00 23 1016.4
20260903075217 64 252 0.9 2.6 0.00 0.00 0.00 23 1016.4
20260903074217 65 252 0.0 2.6 0.00 0.00 0.00 23 1016.4
20260903073217 66 0.0 0.9 0.00 0.00 0.00 22 1016.4
20260903072217 66 252 1.7 2.6 0.00 0.00 0.00 22 1016.5
20260903071217 66 252 0.9 2.6 0.00 0.00 0.00 21 1016.4
20260903070217 67 258 2.6 3.5 0.00 0.00 0.00 21 1016.3
20260903065217 67 213 1.7 4.3 0.00 0.00 0.00 21 1016.5
20260903064217 67 195 1.7 3.5 0.00 0.00 0.00 23 1016.4
20260903063217 68 198 0.9 1.7 0.00 0.00 0.00 22 1015.9
20260903062217 68 249 0.0 0.9 0.00 0.00 0.00 22 1016.1
20260903061216 68 249 0.9 1.7 0.00 0.00 0.00 21 1015.9
20260903060217 69 249 0.0 0.9 0.00 0.00 0.00 21 1015.7
20260903055254 69 249 0.9 1.7 0.00 0.00 0.00 20 1015.7
20260903054216 70 249 0.9 2.6 0.00 0.00 0.00 20 1015.7
20260903053216 70 249 1.7 4.3 0.00 0.00 0.00 18 1015.6
20260903052236 70 249 0.9 2.6 0.00 0.00 0.00 19 1015.6
20260903051236 71 256 0.9 1.7 0.00 0.00 0.00 19 1016.0
20260903050216 71 256 1.7 4.3 0.00 0.00 0.00 18 1016.0
20260903045216 71 242 0.9 2.6 0.00 0.00 0.00 18 1016.1
20260903044215 72 265 2.6 3.5 0.00 0.00 0.00 18 1016.2